Flag for U.S.A. Weather past 2 weeks in Charlotte, North Carolina, U.S.A.

Now
84 °F

Scattered clouds.


Feels Like: 88 °F
Forecast: 69 / 93 °F
Wind: 6 mph from East

Location: Charlotte / Douglas International Airport

Current Time: Aug 20, 2014 at 11:36:59 AM

Latest Report: Aug 20, 2014 at 10:52 AM


Visibility: 10 mi

Pressure: 30.00 "Hg

Humidity: 63%

Dew point: 70 °F

Location of CharlotteLocation

Historic Weather in Charlotte — Graph

°F

Charlotte temperature yesterday

Maximum temperature yesterday: 89 °F (at 1:52 PM)
Minimum temperature yesterday: 70 °F (at 5:52 AM)
Average temperature yesterday: 77 °F

Past Weeks' High & Low Weather Summary

 TemperatureHumidityPressure
High89 °F (Aug 18, 3:52 PM)97% (Aug 13, 7:52 AM)30.11 "Hg (Aug 13, 7:52 AM)
Low61 °F (Aug 14, 2:52 AM)36% (Aug 14, 4:52 PM)29.77 "Hg (Aug 12, 5:52 PM)
Average76 °F73%29.97 "Hg
* Reported Aug 5 9:52 AM — Aug 20 9:52 AM, Charlotte, Weather by CustomWeather, © 2014

Note: Actual official high and low records may vary slightly from our data, if they occured in-between our weather recording intervals... More about our weather records

Advertising

Charlotte weather history for previous 24 hours

 ConditionsComfort  
Time TempWeatherWind HumidityBarometerVisibility
9:52 AM
Aug 20
80 °FMore clouds than sun.5 mph71%29.99 "Hg10 mi
8:52 AM77 °FPartly sunny.3 mph79%29.98 "Hg10 mi
7:52 AM72 °FScattered clouds.No wind91%29.96 "Hg10 mi
6:52 AM67 °FPassing clouds.No wind93%29.94 "Hg7 mi
5:52 AM70 °FPassing clouds.3 mph90%29.92 "Hg10 mi
4:52 AM70 °FPassing clouds.No wind90%29.90 "Hg7 mi
3:52 AM70 °FPassing clouds.3 mph93%29.90 "Hg9 mi
2:52 AM69 °FPassing clouds.No wind96%29.90 "Hg7 mi
1:52 AM70 °FPassing clouds.No wind97%29.88 "Hg10 mi
12:52 AM71 °FPassing clouds.3 mph93%29.90 "Hg10 mi
11:52 PM
Aug 19
71 °FPassing clouds.No wind93%29.89 "Hg10 mi
10:52 PM74 °FPassing clouds.No wind88%29.89 "Hg10 mi
9:52 PM75 °FPassing clouds.No wind88%29.87 "Hg10 mi
8:52 PM76 °FScattered clouds.No wind85%29.87 "Hg10 mi
7:52 PM77 °FBroken clouds.5 mph85%29.86 "Hg10 mi
6:52 PM79 °FScattered clouds.3 mph74%29.83 "Hg10 mi
5:52 PM80 °FScattered clouds.6 mph71%29.84 "Hg10 mi
4:52 PM75 °FPartly sunny.7 mph88%29.85 "Hg10 mi
3:52 PM76 °FBroken clouds.3 mph85%29.83 "Hg10 mi
2:52 PM85 °FPartly sunny.9 mph55%29.83 "Hg10 mi
1:52 PM89 °FScattered clouds.5 mph50%29.83 "Hg10 mi
12:52 PM87 °FScattered clouds.5 mph48%29.85 "Hg10 mi
11:52 AM85 °FScattered clouds.No wind57%29.86 "Hg10 mi
Weather by CustomWeather, © 2014

See weather overviewHow to use our weather pages